When you browse on this site, cookies collect data to enhance your experience and personalize the content and advertising you see.
Visit our Privacy Policy to learn more. By continuing to use the site, you agree to this use of cookies and data.
  • In Spain
  • List of Countries
  • For 7 days
  • Water Temperature
  • Weather Map
  • Weather Widgets
  • user-avatar
    Login

    Hourly Weather Taba

    Today, 15 December, Sunday

    Time Temperature Precipitation Wind Pressure Humidity
    00:00 +9°C° 0 mm 1 mps 692 mmHg 40%
    01:00 +9°C° 0 mm 1 mps 691 mmHg 41%
    02:00 +9°C° 0 mm 1 mps 691 mmHg 42%
    03:00 +8°C° 0 mm 1 mps 691 mmHg 44%
    04:00 +8°C° 0 mm 1 mps 691 mmHg 46%
    05:00 +8°C° 0 mm 1 mps 691 mmHg 49%
    06:00 +9°C° 0 mm 1 mps 691 mmHg 48%
    07:00 +9°C° 0 mm 2 mps 691 mmHg 47%
    08:00 +12°C° 0 mm 2 mps 692 mmHg 46%
    09:00 +12°C° 0 mm 3 mps 692 mmHg 41%
    10:00 +14°C° 0 mm 3 mps 692 mmHg 36%
    11:00 +15°C° 0 mm 4 mps 692 mmHg 30%
    12:00 +15°C° 0 mm 4 mps 692 mmHg 31%
    13:00 +17°C° 0 mm 4 mps 691 mmHg 31%
    14:00 +17°C° 0 mm 4 mps 691 mmHg 31%
    15:00 +16°C° 0.1 mm 3 mps 691 mmHg 38%
    16:00 +13°C° 0.1 mm 3 mps 691 mmHg 45%
    17:00 +13°C° 0.1 mm 2 mps 691 mmHg 52%
    18:00 +11°C° 0 mm 3 mps 691 mmHg 54%
    19:00 +11°C° 0 mm 3 mps 692 mmHg 56%
    20:00 +11°C° 0 mm 3 mps 692 mmHg 58%
    21:00 +10°C° 0 mm 3 mps 693 mmHg 60%
    22:00 +10°C° 0 mm 3 mps 693 mmHg 62%
    23:00 +9°C° 0 mm 3 mps 693 mmHg 64%

    Tomorrow, 16 December, Monday

    Time Temperature Precipitation Wind Pressure Humidity
    00:00 +9°C° 0 mm 3 mps 693 mmHg 65%
    01:00 +8°C° 0 mm 2 mps 693 mmHg 67%
    02:00 +8°C° 0 mm 2 mps 693 mmHg 69%
    03:00 +8°C° 0 mm 2 mps 693 mmHg 70%
    04:00 +7°C° 0 mm 2 mps 693 mmHg 71%
    05:00 +7°C° 0 mm 3 mps 693 mmHg 72%
    06:00 +8°C° 0 mm 3 mps 694 mmHg 70%
    07:00 +8°C° 0 mm 3 mps 694 mmHg 68%
    08:00 +9°C° 0 mm 3 mps 695 mmHg 66%
    09:00 +10°C° 0 mm 4 mps 695 mmHg 57%
    10:00 +12°C° 0 mm 5 mps 695 mmHg 47%
    11:00 +14°C° 0 mm 6 mps 695 mmHg 38%
    12:00 +14°C° 0 mm 6 mps 695 mmHg 36%
    13:00 +15°C° 0 mm 6 mps 695 mmHg 35%
    14:00 +15°C° 0 mm 6 mps 695 mmHg 33%
    15:00 +14°C° 0 mm 6 mps 695 mmHg 36%
    16:00 +13°C° 0 mm 6 mps 695 mmHg 38%
    17:00 +12°C° 0 mm 5 mps 695 mmHg 41%
    18:00 +10°C° 0 mm 5 mps 695 mmHg 46%
    19:00 +9°C° 0 mm 5 mps 695 mmHg 50%
    20:00 +10°C° 0 mm 4 mps 695 mmHg 54%
    21:00 +8°C° 0 mm 4 mps 695 mmHg 64%
    22:00 +8°C° 0 mm 3 mps 695 mmHg 73%
    23:00 +8°C° 0 mm 3 mps 696 mmHg 83%

    Day after tomorrow, 17 December, Tuesday

    Time Temperature Precipitation Wind Pressure Humidity
    00:00 +8°C° 0 mm 3 mps 695 mmHg 85%
    01:00 +7°C° 0 mm 3 mps 695 mmHg 87%
    02:00 +7°C° 0 mm 2 mps 695 mmHg 90%
    03:00 +7°C° 0 mm 2 mps 695 mmHg 90%
    04:00 +7°C° 0 mm 2 mps 695 mmHg 91%
    05:00 +7°C° 0 mm 2 mps 695 mmHg 91%
    06:00 +7°C° 0 mm 2 mps 696 mmHg 88%
    07:00 +8°C° 0 mm 2 mps 696 mmHg 84%
    08:00 +8°C° 0 mm 2 mps 697 mmHg 80%
    09:00 +10°C° 0 mm 3 mps 697 mmHg 69%
    10:00 +12°C° 0 mm 3 mps 697 mmHg 58%
    11:00 +14°C° 0 mm 4 mps 697 mmHg 47%
    12:00 +14°C° 0 mm 4 mps 697 mmHg 44%
    13:00 +15°C° 0 mm 4 mps 697 mmHg 41%
    14:00 +16°C° 0 mm 5 mps 697 mmHg 38%
    15:00 +14°C° 0 mm 4 mps 697 mmHg 44%
    16:00 +13°C° 0 mm 4 mps 697 mmHg 50%
    17:00 +12°C° 0 mm 4 mps 697 mmHg 55%
    18:00 +11°C° 0 mm 4 mps 697 mmHg 61%
    19:00 +10°C° 0 mm 3 mps 697 mmHg 66%
    20:00 +9°C° 0 mm 3 mps 698 mmHg 72%
    21:00 +9°C° 0 mm 2 mps 698 mmHg 74%
    22:00 +9°C° 0 mm 2 mps 698 mmHg 77%
    23:00 +8°C° 0 mm 2 mps 698 mmHg 79%

    18 December, Wednesday

    Time Temperature Precipitation Wind Pressure Humidity
    00:00 +8°C° 0 mm 2 mps 698 mmHg 81%
    01:00 +8°C° 0 mm 2 mps 698 mmHg 83%
    02:00 +7°C° 0 mm 2 mps 698 mmHg 85%
    03:00 +7°C° 0 mm 2 mps 698 mmHg 85%
    04:00 +7°C° 0 mm 2 mps 698 mmHg 84%
    05:00 +6°C° 0 mm 2 mps 698 mmHg 84%
    06:00 +7°C° 0 mm 2 mps 698 mmHg 78%
    07:00 +9°C° 0 mm 2 mps 699 mmHg 72%
    08:00 +10°C° 0 mm 2 mps 699 mmHg 66%
    09:00 +13°C° 0 mm 2 mps 699 mmHg 53%
    10:00 +14°C° 0 mm 2 mps 699 mmHg 41%
    11:00 +16°C° 0 mm 2 mps 699 mmHg 29%
    12:00 +17°C° 0 mm 3 mps 699 mmHg 26%
    13:00 +18°C° 0 mm 3 mps 699 mmHg 22%
    14:00 +19°C° 0 mm 3 mps 699 mmHg 19%
    15:00 +17°C° 0 mm 4 mps 698 mmHg 24%
    16:00 +15°C° 0 mm 4 mps 698 mmHg 29%
    17:00 +13°C° 0 mm 4 mps 698 mmHg 33%
    18:00 +12°C° 0 mm 4 mps 698 mmHg 39%
    19:00 +11°C° 0 mm 3 mps 698 mmHg 44%
    20:00 +10°C° 0 mm 3 mps 699 mmHg 50%
    21:00 +10°C° 0 mm 3 mps 699 mmHg 50%
    22:00 +9°C° 0 mm 3 mps 698 mmHg 51%
    23:00 +9°C° 0 mm 2 mps 698 mmHg 52%

    19 December, Thursday

    Time Temperature Precipitation Wind Pressure Humidity
    00:00 +9°C° 0 mm 2 mps 698 mmHg 51%
    01:00 +8°C° 0 mm 2 mps 698 mmHg 50%
    02:00 +8°C° 0 mm 2 mps 698 mmHg 49%
    03:00 +8°C° 0 mm 3 mps 698 mmHg 48%
    04:00 +7°C° 0 mm 3 mps 698 mmHg 46%
    05:00 +7°C° 0 mm 3 mps 697 mmHg 45%
    06:00 +8°C° 0 mm 3 mps 698 mmHg 41%
    07:00 +9°C° 0 mm 2 mps 698 mmHg 36%
    08:00 +10°C° 0 mm 2 mps 698 mmHg 31%
    09:00 +12°C° 0 mm 3 mps 699 mmHg 27%
    10:00 +14°C° 0 mm 3 mps 699 mmHg 23%
    11:00 +16°C° 0 mm 3 mps 699 mmHg 19%
    12:00 +17°C° 0 mm 3 mps 699 mmHg 17%
    13:00 +18°C° 0 mm 3 mps 698 mmHg 16%
    14:00 +19°C° 0 mm 3 mps 698 mmHg 14%
    15:00 +17°C° 0 mm 3 mps 698 mmHg 17%
    16:00 +14°C° 0 mm 3 mps 697 mmHg 19%
    17:00 +13°C° 0 mm 3 mps 697 mmHg 22%
    18:00 +12°C° 0 mm 3 mps 697 mmHg 25%
    19:00 +12°C° 0 mm 2 mps 697 mmHg 28%
    20:00 +10°C° 0 mm 2 mps 697 mmHg 30%
    21:00 +9°C° 0 mm 2 mps 697 mmHg 32%
    22:00 +9°C° 0 mm 2 mps 697 mmHg 33%
    23:00 +8°C° 0 mm 2 mps 697 mmHg 35%

    20 December, Friday

    Time Temperature Precipitation Wind Pressure Humidity
    00:00 +8°C° 0 mm 2 mps 696 mmHg 36%
    01:00 +8°C° 0 mm 1 mps 696 mmHg 37%
    02:00 +8°C° 0 mm 1 mps 696 mmHg 39%
    03:00 +8°C° 0 mm 1 mps 695 mmHg 40%
    04:00 +7°C° 0 mm 1 mps 695 mmHg 42%
    05:00 +7°C° 0 mm 1 mps 695 mmHg 43%
    06:00 +8°C° 0 mm 1 mps 695 mmHg 39%
    07:00 +10°C° 0 mm 1 mps 696 mmHg 35%
    08:00 +11°C° 0 mm 1 mps 696 mmHg 31%
    09:00 +13°C° 0 mm 1 mps 696 mmHg 27%
    10:00 +15°C° 0 mm 2 mps 697 mmHg 23%
    11:00 +17°C° 0 mm 2 mps 697 mmHg 19%
    12:00 +17°C° 0 mm 2 mps 696 mmHg 18%
    13:00 +18°C° 0 mm 2 mps 696 mmHg 16%
    14:00 +19°C° 0 mm 2 mps 696 mmHg 14%
    15:00 +17°C° 0 mm 2 mps 695 mmHg 17%
    16:00 +15°C° 0 mm 2 mps 695 mmHg 20%
    17:00 +14°C° 0 mm 2 mps 695 mmHg 23%
    18:00 +13°C° 0 mm 2 mps 695 mmHg 26%
    19:00 +12°C° 0 mm 2 mps 695 mmHg 29%
    20:00 +10°C° 0 mm 2 mps 695 mmHg 32%
    21:00 +9°C° 0 mm 2 mps 695 mmHg 33%
    22:00 +9°C° 0 mm 2 mps 694 mmHg 34%
    23:00 +8°C° 0 mm 2 mps 694 mmHg 35%
    Show more